TimeHST,TemperatureF,Dew PointF,Humidity,Sea Level PressureIn,VisibilityMPH,Wind Direction,Wind SpeedMPH,Gust SpeedMPH,PrecipitationIn,Events,Conditions,WindDirDegrees,DateUTC
12:56 AM,37.9,30.9,76,29.90,10.0,WSW,18.4,-,N/A,,Partly Cloudy,240,2012-11-26 10:56:00
1:56 AM,37.9,30.9,76,29.92,10.0,SSW,15.0,-,N/A,,Partly Cloudy,210,2012-11-26 11:56:00
2:56 AM,37.9,30.9,76,29.93,10.0,SW,20.7,-,N/A,,Clear,230,2012-11-26 12:56:00
3:56 AM,36.0,30.9,82,29.95,10.0,SW,16.1,-,N/A,,Mostly Cloudy,220,2012-11-26 13:56:00
4:53 AM,37.4,30.2,75,29.97,10.0,West,16.1,-,N/A,,Mostly Cloudy,260,2012-11-26 14:53:00
4:56 AM,37.9,30.9,76,29.97,10.0,West,15.0,-,N/A,,Mostly Cloudy,260,2012-11-26 14:56:00
5:26 AM,35.6,33.8,93,29.98,6.2,West,16.1,-,N/A,Snow,Light Snow,260,2012-11-26 15:26:00
5:37 AM,35.6,33.8,93,29.99,10.0,WSW,20.7,24.2,N/A,,Mostly Cloudy,250,2012-11-26 15:37:00
5:56 AM,37.0,35.1,93,29.99,10.0,WSW,24.2,28.8,N/A,,Partly Cloudy,250,2012-11-26 15:56:00
6:56 AM,36.0,35.1,97,30.01,10.0,WSW,24.2,-,N/A,,Partly Cloudy,240,2012-11-26 16:56:00
7:56 AM,36.0,30.0,79,30.05,10.0,WNW,26.5,32.2,N/A,,Mostly Cloudy,290,2012-11-26 17:56:00
8:09 AM,33.8,30.2,87,30.06,10.0,West,15.0,-,N/A,,Mostly Cloudy,280,2012-11-26 18:09:00
8:56 AM,34.0,30.0,85,30.09,10.0,West,11.5,-,N/A,,Clear,270,2012-11-26 18:56:00
9:49 AM,35.6,30.2,81,30.12,10.0,NW,10.4,-,N/A,,Scattered Clouds,310,2012-11-26 19:49:00
9:56 AM,35.1,30.9,85,30.12,10.0,NW,11.5,-,N/A,,Partly Cloudy,310,2012-11-26 19:56:00
10:56 AM,36.0,28.0,73,30.16,10.0,WNW,13.8,-,N/A,,Clear,290,2012-11-26 20:56:00
11:56 AM,37.9,28.0,68,30.18,10.0,WNW,15.0,-,N/A,,Scattered Clouds,290,2012-11-26 21:56:00
12:56 PM,39.0,28.9,67,30.22,10.0,West,13.8,-,N/A,,Partly Cloudy,270,2012-11-26 22:56:00
1:56 PM,39.9,27.0,60,30.24,10.0,WSW,13.8,-,N/A,,Clear,250,2012-11-26 23:56:00
2:56 PM,41.0,26.1,55,30.26,10.0,West,9.2,-,N/A,,Clear,280,2012-11-27 00:56:00
3:56 PM,39.9,25.0,55,30.30,10.0,West,8.1,-,N/A,,Clear,260,2012-11-27 01:56:00
4:56 PM,39.0,25.0,57,30.31,10.0,West,4.6,-,N/A,,Clear,280,2012-11-27 02:56:00
5:56 PM,39.0,24.1,55,30.33,10.0,Calm,Calm,-,N/A,,Clear,0,2012-11-27 03:56:00
6:56 PM,34.0,25.0,70,30.37,10.0,Calm,Calm,-,N/A,,Clear,0,2012-11-27 04:56:00
7:56 PM,39.0,27.0,62,30.36,10.0,SSW,9.2,-,N/A,,Partly Cloudy,200,2012-11-27 05:56:00
8:56 PM,39.0,27.0,62,30.38,10.0,SSW,9.2,-,N/A,,Mostly Cloudy,210,2012-11-27 06:56:00
9:56 PM,39.0,27.0,62,30.41,10.0,South,12.7,-,N/A,,Partly Cloudy,190,2012-11-27 07:56:00
10:56 PM,39.0,28.0,65,30.41,10.0,SSW,12.7,-,N/A,,Clear,200,2012-11-27 08:56:00
11:56 PM,39.0,26.1,60,30.41,10.0,South,10.4,-,N/A,,Clear,190,2012-11-27 09:56:00